Regional Weather Roundup
Issued by NWS

Home | Current Version | Previous Version | Text Only | Print | Product List | Glossary On
Versions: 1 2 3 4 5 6 7 8 9 10 11 12 13 14 15 16 17 18 19 20 21 22 23 24 25 26 27 28 29 30 31 32 33 34 35 36 37 38 39 40 41 42 43 44 45 46 47 48 49 50
000
ASUS44 KFWD 271903
RWRTX
NORTH TEXAS HOURLY WEATHER ROUNDUP
NATIONAL WEATHER SERVICE FORT WORTH TX
100 PM CST THU NOV 27 2014

NOTE: "FAIR" INDICATES FEW OR NO CLOUDS BELOW 12,000 FEET WITH NO
SIGNIFICANT WEATHER AND/OR OBSTRUCTIONS TO VISIBILITY.

TXZ118-119-272000-
DALLAS/FORT WORTH METROPLEX

CITY           SKY/WX    TMP DP  RH WIND       PRES   REMARKS
DFW AIRPORT    MOSUNNY   54  20  26 VRB3      30.48F
DALLAS LOVE    MOSUNNY   56  20  24 VRB3      30.48F
FTW MEACHAM    SUNNY     56  22  26 CALM      30.47F
DAL-EXECUTIVE  SUNNY     57  17  21 NE6       30.47F
FTW-ALLIANCE   SUNNY     54  22  28 VRB6      30.48F
FTW-SPINKS     SUNNY     55  21  26 NE5       30.49F
ARLINGTON      SUNNY     56  18  22 N3        30.48F
ADDISON        SUNNY     54  18  24 CALM      30.49F
MESQUITE       SUNNY     54  21  28 W5        30.48F
LANCASTER      SUNNY     54  19  25 N3        30.48F
$$

TXZ091>094-102>105-117-120-121-131>134-272000-
NORTH CENTRAL TEXAS

CITY           SKY/WX    TMP DP  RH WIND       PRES   REMARKS
SHRMAN/DENISON SUNNY     54  24  31 NE5       30.48F
BRIDGEPORT     SUNNY     57  29  34 CALM      30.50F
DECATUR        SUNNY     52  22  30 S3        30.47F
DENTON         SUNNY     54  22  28 CALM      30.48F
MCKINNEY       SUNNY     55  21  26 E6        30.48F
GREENVILLE     SUNNY     59  19  21 NE6       30.47F
ROCKWALL       SUNNY     57  22  26 NE7       30.47F
TERRELL        SUNNY     58  22  24 E6        30.47F
WAXAHACHIE     SUNNY     55  26  32 N6        30.49F
CLEBURNE       SUNNY     55  19  24 CALM      30.49F
GRANBURY       SUNNY     57  26  30 SE3       30.50F
$$

TXZ083>090-098>101-113>116-127>130-139>142-154-155-272000-
WESTERN NORTH TEXAS

CITY           SKY/WX    TMP DP  RH WIND       PRES   REMARKS
WICHITA FALLS  SUNNY     50  25  37 VRB3      30.47F
WF-KICKAPOO    SUNNY     51  23  33 SE6       30.49F
VERNON         SUNNY     52  25  35 S6        30.47F
ABILENE        SUNNY     56  28  34 S10       30.45F
ABILENE-DYESS  SUNNY     58  29  32 S10       30.44F
MINERAL WELLS  SUNNY     55  21  26 SE6       30.46F
STEPHENVILLE   SUNNY     57  19  23 CALM      30.49F
COMANCHE       SUNNY     56  29  35 SE6       30.48F
COLEMAN        SUNNY     56  34  43 SE7       30.46F
BRADY          SUNNY     57  28  33 E3        30.44F
$$

TXZ143>147-156>162-174-175-272000-
CENTRAL TEXAS

CITY           SKY/WX    TMP DP  RH WIND       PRES   REMARKS
WACO           SUNNY     58  22  24 CALM      30.48F
WACO-TSTC      SUNNY     59  21  23 E5        30.48
WACO-MCGREGOR  SUNNY     57  27  30 N3        30.49F
CORSICANA      SUNNY     58  23  26 VRB6      30.49F
MEXIA          SUNNY     57  22  25 CALM      30.47F
HEARNE         SUNNY     61  25  24 CALM      30.48F HAZE
CAMERON        SUNNY     60  26  27 S5        30.48F
TEMPLE         SUNNY     59  25  27 E5        30.47F
KILLEEN        SUNNY     55  21  26 VRB6      30.47F
KILLEEN-SKYLRK SUNNY     57  23  26 NE3       30.45F
FORT HOOD      SUNNY     62  21  20 VRB6      30.47F
GATESVILLE     SUNNY     57  23  26 CALM      30.50F
HAMILTON       SUNNY     57  22  25 SE7       30.48F
LAMPASAS       SUNNY     57  28  32 SE8       30.46F
$$

TXZ095>097-106>112-122>126-135>138-148>153-164>167-272000-
EAST TEXAS

CITY           SKY/WX    TMP DP  RH WIND       PRES   REMARKS
PARIS          SUNNY     54  19  26 E6        30.49F
SULPHUR SPRNGS SUNNY     56  18  22 NE5       30.50F HAZE
MOUNT PLEASANT SUNNY     55  21  25 N5        30.50F
MINEOLA          N/A    N/A N/A N/A MISG        N/A
TYLER          SUNNY     59  20  22 NE9       30.46F
LONGVIEW       SUNNY     58  22  24 NE8       30.46F
MARSHALL       SUNNY     56  23  28 NE3       30.50F
ATHENS         SUNNY     57  21  24 NE7       30.45F
PALESTINE      SUNNY     59  24  25 CALM      30.47F
JACKSONVILLE   SUNNY     59  22  24 E7        30.47F
HENDERSON      SUNNY     58  21  23 N13       30.47F
NACOGDOCHES    SUNNY     63  25  23 NE6       30.46F
LUFKIN         SUNNY     64  26  23 VRB6      30.45F
$$

SUPPLEMENTAL OBSERVATIONS (CENTRAL)

CITY           SKY/WX    TMP DP  RH WIND       PRES   REMARKS
$$

SUPPLEMENTAL OBSERVATIONS (WEST)

CITY           SKY/WX    TMP DP  RH WIND       PRES   REMARKS
$$

SUPPLEMENTAL OBSERVATIONS (EAST)

CITY           SKY/WX    TMP DP  RH WIND       PRES   REMARKS
$$

SUPPLEMENTAL OBSERVATIONS ARE A COLLECTION OF AUTOMATED INSTRUMENTS
THAT ARE MAINTAINED BY A VARIETY OF FEDERAL AND STATE AGENCIES.
CERTAIN ELEMENTS...SUCH AS HUMIDITY VALUES AND SUSTAINED WIND
SPEEDS...MAY BE APPROXIMATED.



USA.gov is the U.S. government's official web portal to all federal, state and local government web resources and services.